Temperature
14 14 14 14 14 14 14 13 13 12 12 14 14 14 14 14 14 15 15 16 16 16 17 17 17 17 17 17 16 16 16 16 16 16 16 17 17 17
13 13 14 14 14 14 14 13 13 12 12 13 14 13 13 13 14 14 14 15 15 15 16 16 16 16 16 16 16 16 16 16 16 16 16 16 16 17
12 12 13 13 13 13 13 13 13 13 12 13 13 13 13 13 13 13 13 13 14 14 15 15 15 15 15 15 15 15 15 16 16 16 16 16 16 16
11 12 12 12 12 13 13 13 13 13 12 13 13 13 13 13 13 13 13 13 13 13 13 14 14 15 15 15 15 15 15 15 15 15 15 15 16 16
10 11 11 12 12 12 13 13 13 13 13 12 12 12 12 12 12 12 12 12 12 12 12 13 13 13 14 14 14 14 14 14 14 14 15 15 15 15
10 10 11 11 11 12 12 13 13 13 12 12 12 12 12 12 12 12 12 12 12 12 12 12 12 12 13 13 13 13 13 13 13 14 14 14 14 14
10 10 10 10 11 11 12 12 12 12 12 12 12 12 12 12 12 12 11 11 11 11 11 11 11 11 12 12 12 12 12 12 12 13 13 13 13 13
9 9 10 10 11 11 11 12 12 12 12 12 12 12 12 12 12 11 11 11 10 10 11 10 11 11 11 11 11 11 11 11 11 12 12 12 12 12
9 9 9 10 10 11 11 11 11 11 12 12 12 12 12 12 12 11 11 11 11 10 10 10 10 10 10 10 10 10 10 10 10 11 11 11 11 11
8 9 9 9 10 10 10 11 11 11 11 11 12 12 12 12 12 12 11 11 10 10 10 10 9 9 9 9 9 9 9 10 10 10 10 10 10 10
8 8 9 9 9 10 10 10 10 11 11 11 11 11 11 11 11 11 11 11 10 9 9 9 9 8 8 8 8 8 8 9 9 9 9 9 9 9
8 8 8 9 9 9 9 10 10 10 11 11 11 11 11 11 11 11 11 11 10 9 9 9 8 8 7 7 7 8 8 8 8 8 8 8 8 9
8 8 8 8 9 9 9 10 10 10 10 10 11 11 11 11 11 11 11 11 11 11 10 9 9 9 8 7 7 7 7 7 7 7 7 8 8 8
8 8 8 8 9 9 9 9 9 10 10 10 10 10 10 10 10 10 10 10 11 11 10 10 10 10 9 7 7 7 7 7 7 7 7 7 7 7
8 8 8 8 8 8 9 9 9 9 10 10 10 10 10 10 10 10 10 10 10 10 10 10 10 10 9 9 7 7 7 7 7 7 7 7 7 7
8 8 8 8 8 8 8 9 9 9 10 10 10 10 10 10 10 10 9 9 9 9 9 9 9 9 9 9 8 7 7 7 7 7 7 7 7 7
7 7 7 7 7 8 8 8 9 9 9 10 10 10 10 9 9 9 9 9 9 9 9 9 9 9 9 8 8 8 7 7 7 7 7 7 7 7
7 7 7 7 7 7 8 8 8 9 9 9 9 10 10 9 9 9 9 10 10 9 9 9 9 8 8 8 8 8 8 7 7 7 7 7 7 7
6 6 7 7 7 7 8 8 8 9 9 9 9 9 10 10 9 9 9 9 10 10 9 9 9 9 8 8 8 8 8 8 8 8 8 8 8 8
6 6 6 7 7 7 8 8 8 9 9 9 9 9 9 10 10 10 10 10 10 9 9 9 9 9 9 9 8 8 8 8 8 8 8 8 8 8
6 6 6 7 7 7 8 8 8 9 9 9 9 9 9 9 9 9 9 9 10 9 9 9 9 9 9 9 9 9 9 8 8 8 8 8 8 9
6 6 6 7 7 7 8 8 9 9 9 9 9 9 9 9 9 9 9 9 9 9 9 9 9 9 9 9 9 9 9 9 9 9 9 9 9 9
6 6 7 7 7 8 8 9 9 9 9 9 9 9 9 9 9 9 9 9 9 9 9 9 9 9 9 9 9 9 9 9 9 9 9 9 9 9
Wind_Speed
6 7 7 6 6 7 6 6 4 4 4 3 2 1 1 3 4 4 4 5 4 2 2 4 5 6 7 7 8 8 8 9 11 13 14 15 17 20
5 6 6 5 5 6 7 7 7 6 5 3 3 2 2 2 3 4 5 7 8 6 6 7 8 8 8 8 7 6 5 6 7 8 9 10 12 14
5 6 7 6 5 6 6 6 7 7 8 5 3 2 2 1 2 4 5 6 7 11 11 12 12 12 12 11 10 9 7 6 5 5 5 5 6 8
6 6 7 6 7 6 6 7 7 8 7 7 3 2 2 2 3 4 4 6 8 13 15 15 15 15 15 14 13 12 11 10 9 8 7 6 6 5
7 7 7 7 7 6 7 7 7 7 7 6 4 2 2 2 4 5 7 6 8 12 15 16 16 17 17 16 16 15 15 15 15 14 13 12 12 11
7 7 8 8 9 8 7 8 7 7 7 6 5 4 3 3 5 5 6 5 6 7 11 13 16 18 18 17 17 18 18 19 19 20 20 20 20 20
7 7 8 10 11 10 8 8 8 7 7 7 6 5 5 6 6 5 7 7 6 4 7 7 8 9 11 14 16 18 20 21 22 23 24 25 25 25
8 8 8 10 11 13 13 13 12 10 10 8 7 8 8 7 6 9 9 7 4 3 5 6 6 8 8 10 14 18 20 21 22 23 24 25 26 26
8 8 7 8 9 8 10 12 13 14 13 10 10 10 10 10 11 11 9 6 5 7 7 6 6 8 7 11 16 18 19 20 21 22 23 24 25 25
9 9 8 9 8 9 9 9 10 11 12 11 10 10 10 11 12 10 11 10 9 5 3 5 4 6 7 9 14 17 19 20 20 20 21 22 23 24
9 8 9 9 10 11 10 10 9 8 9 10 10 10 13 14 14 13 13 13 9 4 2 4 5 6 6 6 10 14 16 17 18 18 19 20 20 20
7 7 10 10 10 12 11 10 10 8 7 8 9 11 13 16 17 15 15 15 11 5 3 5 7 6 5 4 4 7 11 13 15 15 16 15 15 13
7 6 6 10 11 12 12 10 10 8 8 9 9 10 11 11 10 9 9 13 12 5 8 6 6 4 5 5 3 4 6 7 8 9 11 12 11 11
7 6 6 8 10 11 10 8 11 10 7 8 9 9 10 10 9 9 9 7 5 8 11 7 5 6 8 8 5 4 4 5 6 6 7 9 10 11
7 7 7 7 7 7 8 10 11 9 9 9 10 9 8 10 10 10 10 9 10 10 9 6 8 9 9 8 8 6 5 3 4 4 4 4 4 5
6 6 7 6 5 5 6 8 7 7 8 9 9 8 8 10 11 10 10 10 9 6 6 7 10 11 8 8 9 8 6 5 5 4 4 3 3 3
5 4 4 4 4 5 5 6 6 7 8 8 10 10 10 10 9 9 9 8 7 7 6 4 7 8 7 8 8 7 6 4 5 5 4 3 3 4
6 5 5 5 5 6 7 7 7 9 9 10 10 10 10 11 10 8 8 9 9 8 7 7 8 7 5 5 3 7 5 5 4 5 4 4 4 4
5 5 5 5 5 6 7 8 8 9 10 10 11 10 10 10 10 10 9 9 9 8 8 8 9 8 9 6 2 3 6 5 5 5 4 4 4 3
4 5 5 5 6 6 8 8 9 10 10 10 10 10 10 11 11 10 10 10 9 8 7 7 8 8 8 7 5 4 5 5 5 5 4 3 3 3
4 4 5 6 6 6 7 9 10 10 10 10 10 11 10 10 10 9 9 12 10 9 10 7 4 6 6 5 5 4 4 5 6 4 5 4 3 3
4 5 6 7 7 7 8 9 10 10 10 10 10 10 9 10 11 11 10 10 9 9 8 5 6 5 4 5 5 5 4 4 5 7 8 7 5 5
4 6 7 7 7 8 8 9 10 9 9 10 10 9 9 9 9 9 10 9 8 8 7 6 4 3 3 3 4 4 5 4 4 5 7 15 19 18
Wind_Direction
228 225 225 222 210 210 210 206 221 264 281 269 270 300 333 344 345 1 7 13 26 63 124 141 156 165 171 181 187 193 204 215 218 220 222 224 226 228
228 229 232 228 217 211 210 211 213 228 254 250 250 280 311 340 24 45 55 54 58 73 95 111 115 117 120 126 131 141 163 180 190 201 210 218 224 227
238 229 233 228 221 218 212 211 215 218 245 257 245 260 265 188 75 73 67 67 69 75 86 93 97 101 103 104 105 109 117 123 129 141 156 177 199 214
242 235 234 227 225 221 216 217 218 216 227 248 243 231 235 175 130 106 89 82 79 77 81 83 85 88 90 91 92 93 94 95 96 101 109 117 129 139
242 238 239 229 232 228 221 222 222 221 219 230 232 217 216 164 130 109 98 89 84 82 79 78 81 83 83 84 87 88 89 89 89 89 90 92 95 98
241 238 238 232 233 231 227 223 218 219 217 220 221 212 198 170 147 137 118 94 86 82 79 78 79 78 79 83 87 87 86 87 87 87 86 86 86 87
246 244 243 240 235 229 225 220 211 213 213 212 211 204 190 174 166 146 131 115 83 85 89 72 73 73 74 78 85 89 88 87 87 87 86 85 85 84
247 253 254 251 244 235 226 217 209 209 210 209 209 204 195 178 158 151 144 138 121 113 99 80 74 76 70 79 88 91 90 90 89 89 89 88 87 86
241 249 258 251 239 238 230 221 219 217 213 210 208 204 189 175 163 160 159 140 127 141 116 93 78 77 73 82 92 95 95 94 94 93 92 91 90 89
238 241 248 252 241 228 225 221 222 221 218 217 216 204 186 173 167 156 141 116 105 100 101 106 98 87 79 79 87 97 100 99 98 97 97 95 93 90
240 242 242 247 238 219 217 217 218 221 216 210 201 185 169 160 151 142 140 137 132 121 95 110 124 104 84 75 79 95 102 103 102 102 102 101 98 94
243 246 239 241 238 216 215 212 212 205 186 176 172 166 164 160 158 158 155 151 144 139 155 129 144 129 102 77 82 100 102 100 101 102 104 105 104 102
237 244 243 235 230 219 214 213 205 184 175 168 161 157 156 158 158 152 153 155 152 142 157 142 148 128 122 129 107 101 116 119 110 100 98 98 99 105
229 234 240 233 223 213 210 205 183 171 167 159 155 154 154 154 151 143 130 118 112 134 149 141 137 143 136 136 133 129 117 119 121 117 112 102 94 94
226 226 232 227 213 208 204 187 175 173 164 159 155 151 146 142 136 126 113 102 95 113 130 128 134 140 140 140 143 146 141 137 139 138 133 129 126 122
220 221 216 214 206 184 175 178 181 170 160 153 143 133 129 135 139 139 137 132 121 105 70 104 138 140 137 135 144 148 152 154 159 156 146 140 141 146
183 189 194 191 188 177 173 169 163 153 143 138 136 136 136 135 135 139 140 137 134 144 132 96 90 100 112 140 148 152 151 152 162 160 162 171 187 194
174 190 194 190 182 177 167 157 155 152 143 138 138 138 140 139 137 140 147 149 145 146 143 139 135 123 108 71 103 157 159 159 161 167 178 191 207 210
186 197 194 182 174 167 159 152 149 143 140 138 137 138 138 140 142 145 148 147 145 144 146 152 156 154 160 161 133 157 166 159 161 175 192 204 219 218
197 188 180 170 160 152 148 144 139 135 134 134 134 137 140 142 143 145 149 148 145 142 145 157 167 167 172 168 158 160 174 167 173 183 190 205 238 269
182 177 165 152 144 140 139 138 137 135 134 134 135 138 141 141 141 142 142 143 145 151 159 162 141 120 110 118 131 151 176 193 184 180 178 189 211 225
163 158 150 139 138 139 138 137 134 133 135 135 138 139 141 142 143 144 148 153 156 155 148 132 132 137 142 162 169 165 170 180 208 220 215 209 201 212
145 142 140 139 140 143 139 139 138 138 138 139 141 143 144 143 146 149 153 155 150 144 138 139 148 158 162 172 176 178 183 188 200 218 236 235 238 248
Height
1468 1469 1471 1473 1474 1475 1476 1477 1477 1476 1475 1474 1475 1475 1474 1473 1473 1473 1473 1473 1474 1475 1477 1479 1481 1483 1485 1487 1489 1492 1495 1498 1500 1503 1506 1509 1512 1515
1461 1462 1464 1466 1468 1469 1470 1471 1472 1472 1471 1471 1472 1472 1471 1471 1471 1470 1470 1470 1471 1472 1473 1475 1477 1478 1480 1482 1484 1486 1489 1492 1494 1497 1499 1502 1504 1507
1454 1455 1457 1459 1461 1463 1464 1465 1466 1467 1466 1467 1468 1469 1469 1469 1468 1468 1468 1468 1468 1469 1470 1472 1473 1475 1477 1479 1480 1482 1484 1487 1489 1491 1493 1495 1497 1500
1447 1448 1450 1452 1454 1456 1457 1459 1460 1461 1462 1462 1464 1465 1466 1466 1466 1467 1467 1467 1468 1468 1469 1470 1471 1473 1474 1476 1477 1479 1481 1482 1484 1486 1488 1490 1492 1494
1440 1441 1443 1445 1447 1449 1451 1452 1454 1455 1456 1457 1459 1461 1462 1463 1464 1465 1466 1467 1467 1468 1469 1470 1471 1471 1472 1474 1475 1477 1478 1479 1481 1483 1484 1485 1487 1489
1434 1435 1436 1438 1440 1442 1444 1446 1448 1449 1451 1452 1454 1456 1458 1459 1461 1462 1464 1465 1467 1468 1469 1470 1471 1471 1472 1474 1475 1476 1477 1478 1480 1481 1482 1483 1484 1486
1428 1429 1430 1431 1433 1435 1437 1439 1441 1443 1444 1446 1448 1451 1453 1455 1457 1459 1461 1464 1466 1467 1469 1470 1471 1472 1473 1475 1476 1477 1478 1479 1480 1481 1482 1483 1484 1485
1422 1423 1424 1424 1426 1428 1430 1432 1434 1436 1438 1440 1442 1445 1447 1451 1453 1456 1458 1461 1464 1467 1469 1471 1473 1473 1475 1476 1477 1479 1480 1481 1481 1482 1483 1484 1485 1486
1415 1416 1416 1417 1419 1421 1423 1425 1427 1429 1432 1435 1436 1439 1442 1445 1449 1452 1456 1459 1461 1465 1469 1470 1473 1474 1476 1478 1480 1481 1482 1483 1484 1485 1485 1486 1487 1488
1409 1409 1410 1410 1412 1414 1416 1418 1420 1422 1425 1428 1430 1434 1438 1441 1445 1449 1452 1456 1461 1465 1469 1470 1474 1476 1478 1480 1482 1483 1484 1485 1486 1487 1488 1489 1489 1490
1402 1403 1403 1404 1406 1408 1409 1411 1414 1416 1419 1422 1425 1429 1433 1437 1441 1445 1450 1454 1458 1464 1468 1469 1473 1476 1479 1481 1483 1485 1486 1487 1489 1490 1491 1492 1492 1493
1396 1397 1397 1398 1399 1401 1403 1405 1407 1410 1414 1417 1420 1424 1428 1433 1438 1443 1447 1451 1455 1461 1466 1469 1472 1475 1480 1483 1485 1487 1489 1490 1491 1492 1493 1494 1495 1495
1389 1390 1391 1392 1393 1395 1397 1400 1402 1406 1409 1413 1416 1420 1425 1430 1435 1441 1446 1450 1453 1457 1463 1467 1471 1474 1477 1482 1486 1488 1490 1492 1493 1494 1496 1496 1497 1498
1383 1384 1386 1387 1388 1389 1392 1395 1399 1402 1406 1409 1413 1417 1422 1428 1433 1439 1445 1451 1455 1459 1463 1467 1470 1473 1476 1480 1485 1489 1491 1493 1495 1497 1497 1499 1499 1500
1378 1379 1381 1382 1383 1385 1387 1391 1394 1398 1402 1406 1410 1415 1421 1427 1433 1439 1445 1451 1456 1462 1466 1470 1473 1475 1478 1480 1484 1488 1491 1494 1496 1498 1499 1501 1501 1502
1373 1375 1376 1377 1378 1380 1383 1387 1391 1395 1399 1404 1409 1415 1421 1427 1433 1439 1445 1451 1457 1462 1467 1471 1475 1477 1479 1482 1485 1488 1491 1494 1497 1499 1501 1502 1503 1504
1369 1370 1372 1373 1375 1376 1379 1383 1388 1393 1398 1403 1409 1415 1421 1427 1434 1440 1446 1451 1457 1462 1467 1471 1475 1479 1482 1484 1487 1490 1492 1495 1497 1499 1501 1503 1504 1504
1365 1366 1368 1369 1371 1373 1377 1381 1386 1391 1397 1403 1409 1416 1422 1428 1434 1441 1447 1453 1457 1462 1467 1471 1474 1478 1483 1486 1489 1490 1493 1495 1497 1499 1501 1503 1504 1505
1362 1364 1365 1366 1369 1371 1375 1380 1385 1391 1398 1404 1411 1417 1423 1429 1435 1441 1448 1453 1458 1463 1467 1471 1475 1478 1481 1484 1488 1491 1493 1495 1497 1499 1500 1502 1503 1504
1360 1361 1363 1365 1368 1370 1375 1380 1386 1392 1399 1406 1412 1419 1425 1431 1437 1442 1448 1453 1458 1463 1467 1471 1475 1478 1481 1484 1486 1489 1491 1494 1496 1498 1499 1501 1502 1503
1358 1360 1362 1365 1368 1372 1377 1383 1389 1395 1401 1408 1414 1421 1427 1432 1438 1444 1449 1454 1459 1463 1467 1471 1475 1478 1481 1484 1486 1488 1491 1493 1495 1497 1498 1499 1500 1501
1358 1360 1363 1367 1371 1375 1381 1386 1393 1399 1405 1411 1417 1423 1429 1434 1439 1444 1449 1454 1459 1463 1467 1471 1475 1478 1481 1483 1485 1488 1490 1492 1494 1495 1497 1498 1499 1499
1359 1362 1366 1370 1375 1380 1385 1391 1397 1403 1409 1414 1420 1425 1431 1436 1441 1446 1451 1455 1460 1464 1467 1471 1474 1477 1480 1483 1485 1487 1489 1491 1492 1494 1495 1495 1496 1496